| time (UTC) | temp F | wind direction | speed MPH | gust MPH | rain 1hr in | rain 24hr in | rain mn in | humidity % | barometer mb |
| 20260508060039 | 43 | 0 | 0.0 | 0.0 | 0.00 | 0.17 | 0.00 | 82 | 1013.2 |
| 20260508055527 | 44 | 0 | 0.0 | 0.0 | 0.00 | 0.17 | 0.17 | 81 | 1013.2 |
| 20260508055027 | 44 | 0 | 0.0 | 0.0 | 0.00 | 0.17 | 0.17 | 81 | 1013.3 |
| 20260508054539 | 45 | 0 | 0.0 | 0.0 | 0.00 | 0.17 | 0.17 | 81 | 1013.3 |
| 20260508054027 | 45 | 0 | 0.0 | 0.0 | 0.00 | 0.17 | 0.17 | 82 | 1013.3 |
| 20260508053532 | 45 | 0 | 0.0 | 0.0 | 0.00 | 0.17 | 0.17 | 82 | 1013.4 |
| 20260508053059 | 45 | 0 | 0.0 | 0.0 | 0.00 | 0.17 | 0.17 | 82 | 1013.3 |
| 20260508052528 | 46 | 0 | 0.0 | 0.0 | 0.00 | 0.17 | 0.17 | 81 | 1013.4 |
| 20260508052028 | 46 | 0 | 0.0 | 0.0 | 0.00 | 0.17 | 0.17 | 82 | 1013.4 |
| 20260508051543 | 45 | 0 | 0.0 | 0.0 | 0.00 | 0.17 | 0.17 | 82 | 1013.4 |
| 20260508051028 | 45 | 0 | 0.0 | 3.0 | 0.00 | 0.17 | 0.17 | 83 | 1013.4 |
| 20260508050528 | 45 | 0 | 0.0 | 3.0 | 0.00 | 0.17 | 0.17 | 84 | 1013.3 |
| 20260508050041 | 45 | 0 | 1.0 | 3.0 | 0.00 | 0.17 | 0.17 | 84 | 1013.3 |
| 20260508045530 | 45 | 0 | 0.0 | 0.0 | 0.00 | 0.17 | 0.17 | 83 | 1013.4 |
| 20260508045027 | 45 | 0 | 0.0 | 0.0 | 0.00 | 0.17 | 0.17 | 83 | 1013.3 |
| 20260508044538 | 45 | 0 | 0.0 | 0.0 | 0.00 | 0.17 | 0.17 | 82 | 1013.3 |
| 20260508044031 | 45 | 0 | 0.0 | 0.0 | 0.00 | 0.17 | 0.17 | 81 | 1013.3 |
| 20260508043527 | 46 | 0 | 0.0 | 0.0 | 0.00 | 0.17 | 0.17 | 81 | 1013.4 |
| 20260508043038 | 46 | 0 | 0.0 | 0.0 | 0.00 | 0.17 | 0.17 | 80 | 1013.5 |
| 20260508042527 | 46 | 0 | 0.0 | 0.0 | 0.00 | 0.17 | 0.17 | 80 | 1013.4 |
| 20260508042027 | 47 | 0 | 0.0 | 0.0 | 0.00 | 0.17 | 0.17 | 80 | 1013.3 |
| 20260508041603 | 47 | 0 | 0.0 | 0.0 | 0.00 | 0.17 | 0.17 | 78 | 1013.3 |
| 20260508041027 | 47 | 0 | 0.0 | 0.0 | 0.00 | 0.17 | 0.17 | 78 | 1013.5 |
| 20260508040528 | 47 | 0 | 0.0 | 0.0 | 0.00 | 0.17 | 0.17 | 78 | 1013.4 |
| 20260508040104 | 47 | 0 | 0.0 | 3.0 | 0.00 | 0.17 | 0.17 | 77 | 1013.5 |
| 20260508035529 | 47 | 0 | 0.0 | 5.0 | 0.00 | 0.17 | 0.17 | 77 | 1013.3 |
| 20260508035032 | 48 | 130 | 1.0 | 5.0 | 0.00 | 0.17 | 0.17 | 76 | 1013.3 |
| 20260508034539 | 48 | 130 | 1.0 | 4.0 | 0.00 | 0.17 | 0.17 | 76 | 1013.1 |
| 20260508034028 | 48 | 56 | 2.0 | 5.0 | 0.00 | 0.17 | 0.17 | 75 | 1013.0 |
| 20260508033527 | 48 | 56 | 2.0 | 5.0 | 0.00 | 0.17 | 0.17 | 75 | 1013.0 |
| 20260508033038 | 48 | 55 | 2.0 | 5.0 | 0.00 | 0.17 | 0.17 | 75 | 1013.1 |
| 20260508032528 | 48 | 59 | 2.0 | 5.0 | 0.00 | 0.17 | 0.17 | 75 | 1013.1 |
| 20260508032027 | 48 | 77 | 1.0 | 4.0 | 0.00 | 0.17 | 0.17 | 76 | 1013.0 |
| 20260508031539 | 48 | 57 | 1.0 | 4.0 | 0.00 | 0.17 | 0.17 | 76 | 1013.0 |
| 20260508031027 | 48 | 52 | 1.0 | 4.0 | 0.00 | 0.17 | 0.17 | 77 | 1013.1 |
| 20260508030530 | 48 | 0 | 0.0 | 7.0 | 0.00 | 0.17 | 0.17 | 78 | 1013.1 |
| 20260508030038 | 48 | 0 | 0.0 | 8.0 | 0.00 | 0.17 | 0.17 | 79 | 1013.1 |
| 20260508025529 | 48 | 53 | 4.0 | 8.0 | 0.00 | 0.17 | 0.17 | 79 | 1013.1 |
| 20260508025028 | 48 | 55 | 3.0 | 8.0 | 0.00 | 0.17 | 0.17 | 79 | 1013.0 |
| 20260508024544 | 48 | 48 | 2.0 | 13.0 | 0.00 | 0.17 | 0.17 | 79 | 1012.9 |
| 20260508024029 | 48 | 314 | 2.0 | 16.0 | 0.00 | 0.17 | 0.17 | 79 | 1012.9 |
| 20260508023528 | 48 | 5 | 8.0 | 16.0 | 0.00 | 0.17 | 0.17 | 78 | 1013.1 |
| 20260508023039 | 49 | 74 | 6.0 | 15.0 | 0.00 | 0.17 | 0.17 | 77 | 1013.1 |
| 20260508022527 | 49 | 331 | 6.0 | 15.0 | 0.00 | 0.17 | 0.17 | 75 | 1012.8 |
| 20260508022028 | 51 | 24 | 7.0 | 20.0 | 0.00 | 0.17 | 0.17 | 71 | 1013.0 |
| 20260508021540 | 52 | 40 | 10.0 | 20.0 | 0.00 | 0.17 | 0.17 | 67 | 1012.9 |
| 20260508021028 | 52 | 43 | 12.0 | 21.0 | 0.00 | 0.17 | 0.17 | 65 | 1012.8 |
| 20260508020528 | 52 | 49 | 11.0 | 21.0 | 0.00 | 0.17 | 0.17 | 65 | 1012.7 |
| 20260508020044 | 52 | 53 | 10.0 | 21.0 | 0.00 | 0.17 | 0.17 | 66 | 1012.5 |
| 20260508015528 | 53 | 43 | 7.0 | 16.0 | 0.00 | 0.17 | 0.17 | 63 | 1012.6 |
| 20260508015027 | 54 | 93 | 8.0 | 16.0 | 0.00 | 0.17 | 0.17 | 64 | 1012.4 |
| 20260508014538 | 54 | 63 | 5.0 | 11.0 | 0.00 | 0.17 | 0.17 | 66 | 1012.2 |
| 20260508014027 | 54 | 55 | 4.0 | 9.0 | 0.00 | 0.17 | 0.17 | 66 | 1011.9 |
| 20260508013530 | 54 | 75 | 3.0 | 7.0 | 0.00 | 0.17 | 0.17 | 66 | 1011.8 |
| 20260508013044 | 54 | 74 | 2.0 | 5.0 | 0.00 | 0.17 | 0.17 | 66 | 1011.7 |
| 20260508012528 | 54 | 90 | 2.0 | 3.0 | 0.00 | 0.17 | 0.17 | 66 | 1011.6 |
| 20260508012027 | 54 | 96 | 1.0 | 4.0 | 0.00 | 0.17 | 0.17 | 67 | 1011.5 |
| 20260508011550 | 55 | 98 | 1.0 | 6.0 | 0.00 | 0.17 | 0.17 | 67 | 1011.5 |
| 20260508011027 | 55 | 98 | 1.0 | 6.0 | 0.00 | 0.17 | 0.17 | 67 | 1011.5 |
| 20260508010527 | 56 | 98 | 2.0 | 6.0 | 0.00 | 0.17 | 0.17 | 66 | 1011.4 |
| 20260508010039 | 56 | 125 | 2.0 | 6.0 | 0.00 | 0.17 | 0.17 | 65 | 1011.2 |
| 20260508005527 | 56 | 109 | 2.0 | 6.0 | 0.00 | 0.17 | 0.17 | 65 | 1011.2 |
| 20260508005030 | 56 | 91 | 0.0 | 7.0 | 0.00 | 0.17 | 0.17 | 64 | 1011.2 |
| 20260508004544 | 57 | 91 | 3.0 | 7.0 | 0.00 | 0.17 | 0.17 | 63 | 1011.2 |
| 20260508004028 | 57 | 105 | 3.0 | 7.0 | 0.00 | 0.17 | 0.17 | 63 | 1011.1 |
| 20260508003527 | 57 | 103 | 3.0 | 7.0 | 0.00 | 0.17 | 0.17 | 63 | 1011.0 |
| 20260508003040 | 57 | 113 | 3.0 | 7.0 | 0.00 | 0.17 | 0.17 | 62 | 1011.0 |
| 20260508002528 | 57 | 109 | 2.0 | 6.0 | 0.00 | 0.17 | 0.17 | 63 | 1011.0 |
| 20260508002029 | 57 | 76 | 1.0 | 10.0 | 0.00 | 0.17 | 0.17 | 62 | 1011.0 |
| 20260508001541 | 57 | 40 | 4.0 | 10.0 | 0.00 | 0.17 | 0.17 | 62 | 1011.0 |
| 20260508001027 | 58 | 63 | 4.0 | 10.0 | 0.00 | 0.17 | 0.17 | 62 | 1011.2 |
| 20260508000528 | 58 | 77 | 3.0 | 9.0 | 0.00 | 0.17 | 0.17 | 64 | 1011.1 |
| 20260508000037 | 57 | 66 | 4.0 | 9.0 | 0.00 | 0.17 | 0.17 | 62 | 1011.0 |
| 20260507235527 | 57 | 55 | 5.0 | 12.0 | 0.00 | 0.17 | 0.17 | 61 | 1010.9 |
| 20260507235027 | 57 | 108 | 4.0 | 12.0 | 0.00 | 0.17 | 0.17 | 62 | 1011.0 |
| 20260507234538 | 57 | 35 | 7.0 | 12.0 | 0.00 | 0.17 | 0.17 | 61 | 1011.0 |
| 20260507234027 | 57 | 55 | 5.0 | 11.0 | 0.00 | 0.17 | 0.17 | 63 | 1011.0 |
| 20260507233611 | 57 | 57 | 5.0 | 12.0 | 0.00 | 0.17 | 0.17 | 63 | 1010.9 |
| 20260507233057 | 57 | 63 | 5.0 | 12.0 | 0.00 | 0.17 | 0.17 | 65 | 1011.0 |
| 20260507232527 | 57 | 71 | 5.0 | 10.0 | 0.00 | 0.17 | 0.17 | 63 | 1010.9 |
| 20260507232029 | 58 | 82 | 3.0 | 10.0 | 0.00 | 0.17 | 0.17 | 66 | 1010.9 |
| 20260507231542 | 57 | 59 | 5.0 | 11.0 | 0.00 | 0.17 | 0.17 | 64 | 1010.9 |
| 20260507231028 | 58 | 65 | 6.0 | 11.0 | 0.00 | 0.17 | 0.17 | 63 | 1011.0 |
| 20260507230528 | 58 | 70 | 5.0 | 11.0 | 0.00 | 0.17 | 0.17 | 62 | 1011.1 |
| 20260507230040 | 58 | 78 | 6.0 | 13.0 | 0.00 | 0.17 | 0.17 | 64 | 1011.0 |
| 20260507225531 | 57 | 24 | 8.0 | 13.0 | 0.00 | 0.17 | 0.17 | 63 | 1011.0 |
| 20260507225031 | 57 | 55 | 7.0 | 13.0 | 0.00 | 0.17 | 0.17 | 63 | 1010.9 |
| 20260507224546 | 57 | 101 | 5.0 | 13.0 | 0.00 | 0.17 | 0.17 | 63 | 1011.0 |
| 20260507224027 | 58 | 98 | 8.0 | 15.0 | 0.00 | 0.17 | 0.17 | 62 | 1010.9 |
| 20260507223529 | 58 | 90 | 6.0 | 15.0 | 0.00 | 0.17 | 0.17 | 63 | 1011.0 |
| 20260507223038 | 58 | 98 | 6.0 | 15.0 | 0.00 | 0.17 | 0.17 | 66 | 1011.1 |
| 20260507222530 | 58 | 107 | 5.0 | 15.0 | 0.00 | 0.17 | 0.17 | 70 | 1011.0 |
| 20260507222027 | 57 | 51 | 9.0 | 15.0 | 0.00 | 0.17 | 0.17 | 67 | 1010.8 |
| 20260507221540 | 57 | 101 | 9.0 | 14.0 | 0.00 | 0.17 | 0.17 | 70 | 1011.0 |
| 20260507221027 | 57 | 115 | 8.0 | 15.0 | 0.00 | 0.17 | 0.17 | 70 | 1011.1 |
| 20260507220528 | 56 | 32 | 8.0 | 15.0 | 0.00 | 0.17 | 0.17 | 72 | 1011.2 |
| 20260507220039 | 56 | 105 | 8.0 | 17.0 | 0.00 | 0.17 | 0.17 | 70 | 1011.2 |
| 20260507215531 | 56 | 94 | 8.0 | 17.0 | 0.00 | 0.17 | 0.17 | 70 | 1011.3 |
| 20260507215028 | 56 | 103 | 9.0 | 17.0 | 0.00 | 0.17 | 0.17 | 71 | 1011.2 |
| 20260507214537 | 56 | 96 | 8.0 | 17.0 | 0.00 | 0.17 | 0.17 | 71 | 1011.2 |
| 20260507214031 | 56 | 113 | 9.0 | 16.0 | 0.00 | 0.17 | 0.17 | 75 | 1011.3 |
| 20260507213527 | 55 | 93 | 6.0 | 16.0 | 0.00 | 0.17 | 0.17 | 73 | 1011.4 |
| 20260507213041 | 55 | 105 | 7.0 | 16.0 | 0.00 | 0.17 | 0.17 | 70 | 1011.6 |
| 20260507212527 | 55 | 130 | 8.0 | 16.0 | 0.00 | 0.17 | 0.17 | 76 | 1011.7 |
| 20260507212027 | 54 | 86 | 8.0 | 15.0 | 0.00 | 0.17 | 0.17 | 78 | 1011.8 |
| 20260507211541 | 53 | 94 | 7.0 | 15.0 | 0.00 | 0.17 | 0.17 | 78 | 1011.9 |
| 20260507211030 | 53 | 73 | 8.0 | 15.0 | 0.00 | 0.17 | 0.17 | 80 | 1012.1 |
| 20260507210530 | 53 | 109 | 7.0 | 18.0 | 0.00 | 0.17 | 0.17 | 80 | 1012.0 |
| 20260507210048 | 52 | 135 | 10.0 | 18.0 | 0.00 | 0.17 | 0.17 | 79 | 1011.9 |
| 20260507205527 | 53 | 103 | 10.0 | 15.0 | 0.00 | 0.17 | 0.17 | 80 | 1011.9 |
| 20260507205027 | 52 | 106 | 8.0 | 14.0 | 0.00 | 0.17 | 0.17 | 80 | 1012.0 |
| 20260507204539 | 52 | 96 | 8.0 | 14.0 | 0.00 | 0.17 | 0.17 | 80 | 1012.1 |
| 20260507204026 | 52 | 93 | 8.0 | 17.0 | 0.00 | 0.17 | 0.17 | 80 | 1012.2 |
| 20260507203527 | 52 | 95 | 7.0 | 18.0 | 0.00 | 0.17 | 0.17 | 80 | 1012.1 |
| 20260507203043 | 53 | 90 | 9.0 | 18.0 | 0.00 | 0.17 | 0.17 | 79 | 1012.3 |
| 20260507202527 | 53 | 65 | 9.0 | 18.0 | 0.00 | 0.17 | 0.17 | 78 | 1012.1 |
| 20260507202116 | 54 | 101 | 9.0 | 16.0 | 0.00 | 0.17 | 0.17 | 78 | 1011.9 |
| 20260507201539 | 54 | 85 | 7.0 | 14.0 | 0.01 | 0.17 | 0.17 | 77 | 1012.0 |
| 20260507201027 | 53 | 64 | 8.0 | 14.0 | 0.01 | 0.17 | 0.17 | 77 | 1011.9 |
| 20260507200527 | 53 | 64 | 9.0 | 14.0 | 0.01 | 0.17 | 0.17 | 79 | 1011.9 |
| 20260507200047 | 52 | 47 | 9.0 | 17.0 | 0.01 | 0.17 | 0.17 | 79 | 1011.9 |
| 20260507195527 | 52 | 70 | 11.0 | 17.0 | 0.02 | 0.17 | 0.17 | 79 | 1012.1 |
| 20260507195028 | 52 | 54 | 9.0 | 15.0 | 0.02 | 0.17 | 0.17 | 79 | 1012.3 |
| 20260507194607 | 52 | 37 | 7.0 | 15.0 | 0.03 | 0.17 | 0.17 | 80 | 1012.3 |
| 20260507194027 | 52 | 64 | 11.0 | 17.0 | 0.03 | 0.17 | 0.17 | 78 | 1012.1 |
| 20260507193526 | 52 | 73 | 8.0 | 17.0 | 0.03 | 0.17 | 0.17 | 81 | 1012.1 |
| 20260507193042 | 51 | 34 | 5.0 | 14.0 | 0.03 | 0.17 | 0.17 | 82 | 1012.2 |
| 20260507192528 | 50 | 28 | 8.0 | 14.0 | 0.03 | 0.17 | 0.17 | 81 | 1012.2 |
| 20260507192027 | 50 | 71 | 8.0 | 14.0 | 0.03 | 0.17 | 0.17 | 81 | 1012.2 |
| 20260507191538 | 50 | 53 | 8.0 | 14.0 | 0.02 | 0.16 | 0.16 | 81 | 1012.2 |
| 20260507191027 | 50 | 63 | 8.0 | 17.0 | 0.02 | 0.16 | 0.16 | 83 | 1012.1 |
| 20260507190527 | 50 | 54 | 10.0 | 17.0 | 0.02 | 0.16 | 0.16 | 83 | 1012.1 |
| 20260507190051 | 50 | 46 | 10.0 | 17.0 | 0.02 | 0.16 | 0.16 | 83 | 1012.2 |
| 20260507185528 | 50 | 57 | 10.0 | 19.0 | 0.01 | 0.15 | 0.15 | 82 | 1012.1 |
| 20260507185027 | 50 | 46 | 12.0 | 22.0 | 0.01 | 0.15 | 0.15 | 80 | 1012.1 |
| 20260507184540 | 51 | 22 | 12.0 | 22.0 | 0.01 | 0.14 | 0.14 | 79 | 1012.1 |
| 20260507184027 | 53 | 85 | 9.0 | 22.0 | 0.01 | 0.14 | 0.14 | 78 | 1012.1 |
| 20260507183526 | 54 | 70 | 10.0 | 17.0 | 0.01 | 0.14 | 0.14 | 77 | 1011.9 |
| 20260507183044 | 54 | 105 | 7.0 | 13.0 | 0.01 | 0.14 | 0.14 | 80 | 1011.9 |
| 20260507182527 | 54 | 76 | 6.0 | 13.0 | 0.01 | 0.14 | 0.14 | 81 | 1011.9 |
| 20260507182027 | 53 | 56 | 8.0 | 13.0 | 0.02 | 0.14 | 0.14 | 80 | 1011.8 |
| 20260507181537 | 52 | 29 | 4.0 | 11.0 | 0.03 | 0.14 | 0.14 | 82 | 1011.8 |
| 20260507181030 | 51 | 41 | 6.0 | 13.0 | 0.03 | 0.14 | 0.14 | 83 | 1011.9 |
| 20260507180527 | 50 | 57 | 7.0 | 13.0 | 0.03 | 0.14 | 0.14 | 84 | 1012.0 |
| 20260507180039 | 50 | 72 | 8.0 | 14.0 | 0.04 | 0.14 | 0.14 | 84 | 1012.0 |
| 20260507175530 | 50 | 25 | 9.0 | 15.0 | 0.05 | 0.14 | 0.14 | 84 | 1012.1 |
| 20260507175029 | 49 | 74 | 8.0 | 16.0 | 0.06 | 0.14 | 0.14 | 83 | 1012.0 |
| 20260507174554 | 49 | 58 | 9.0 | 16.0 | 0.06 | 0.13 | 0.13 | 83 | 1011.8 |
| 20260507174028 | 49 | 68 | 7.0 | 13.0 | 0.07 | 0.13 | 0.13 | 84 | 1011.7 |
| 20260507173527 | 49 | 57 | 8.0 | 13.0 | 0.08 | 0.13 | 0.13 | 84 | 1011.6 |
| 20260507173103 | 49 | 62 | 6.0 | 14.0 | 0.08 | 0.13 | 0.13 | 86 | 1011.7 |
| 20260507172528 | 49 | 35 | 8.0 | 16.0 | 0.09 | 0.13 | 0.13 | 85 | 1011.8 |
| 20260507172028 | 49 | 74 | 9.0 | 16.0 | 0.08 | 0.12 | 0.12 | 85 | 1011.8 |
| 20260507171546 | 49 | 66 | 6.0 | 11.0 | 0.08 | 0.11 | 0.11 | 86 | 1011.8 |
| 20260507171028 | 48 | 53 | 3.0 | 13.0 | 0.09 | 0.11 | 0.11 | 86 | 1011.7 |
| 20260507170528 | 48 | 53 | 7.0 | 14.0 | 0.09 | 0.11 | 0.11 | 85 | 1011.7 |
| 20260507170041 | 48 | 51 | 8.0 | 14.0 | 0.08 | 0.10 | 0.10 | 83 | 1012.0 |
| 20260507165527 | 48 | 52 | 10.0 | 15.0 | 0.08 | 0.09 | 0.09 | 84 | 1012.0 |
| 20260507165027 | 48 | 64 | 7.0 | 23.0 | 0.07 | 0.08 | 0.08 | 85 | 1012.0 |
| 20260507164547 | 48 | 65 | 10.0 | 23.0 | 0.07 | 0.07 | 0.07 | 84 | 1011.9 |
| 20260507164027 | 49 | 48 | 13.0 | 23.0 | 0.06 | 0.06 | 0.06 | 83 | 1011.8 |
| 20260507163528 | 49 | 54 | 12.0 | 19.0 | 0.05 | 0.05 | 0.05 | 83 | 1011.8 |
| 20260507163047 | 49 | 44 | 11.0 | 21.0 | 0.05 | 0.05 | 0.05 | 83 | 1011.8 |
| 20260507162527 | 49 | 72 | 13.0 | 22.0 | 0.04 | 0.04 | 0.04 | 83 | 1011.8 |
| 20260507162027 | 50 | 49 | 9.0 | 22.0 | 0.04 | 0.04 | 0.04 | 83 | 1011.6 |
| 20260507161556 | 49 | 49 | 7.0 | 17.0 | 0.03 | 0.03 | 0.03 | 84 | 1011.4 |
| 20260507161028 | 49 | 82 | 5.0 | 9.0 | 0.02 | 0.02 | 0.02 | 84 | 1011.4 |
| 20260507160528 | 49 | 108 | 4.0 | 12.0 | 0.02 | 0.02 | 0.02 | 84 | 1011.3 |
| 20260507160042 | 49 | 82 | 6.0 | 12.0 | 0.02 | 0.02 | 0.02 | 83 | 1011.3 |
| 20260507155527 | 50 | 97 | 4.0 | 14.0 | 0.01 | 0.01 | 0.01 | 81 | 1011.4 |
| 20260507155028 | 51 | 74 | 6.0 | 14.0 | 0.01 | 0.01 | 0.01 | 77 | 1011.4 |
| 20260507154542 | 52 | 76 | 7.0 | 13.0 | 0.00 | 0.00 | 0.00 | 70 | 1011.3 |
| 20260507154027 | 54 | 74 | 2.0 | 6.0 | 0.00 | 0.00 | 0.00 | 66 | 1011.1 |
| 20260507153527 | 54 | 123 | 2.0 | 6.0 | 0.00 | 0.00 | 0.00 | 63 | 1010.6 |
| 20260507153041 | 55 | 145 | 3.0 | 6.0 | 0.00 | 0.00 | 0.00 | 62 | 1010.4 |
| 20260507152530 | 55 | 157 | 2.0 | 7.0 | 0.00 | 0.00 | 0.00 | 62 | 1010.3 |
| 20260507152028 | 55 | 128 | 3.0 | 7.0 | 0.00 | 0.00 | 0.00 | 62 | 1010.6 |
| 20260507151538 | 55 | 138 | 4.0 | 9.0 | 0.00 | 0.00 | 0.00 | 59 | 1010.4 |
| 20260507151028 | 55 | 130 | 4.0 | 9.0 | 0.00 | 0.00 | 0.00 | 60 | 1010.6 |
| 20260507150528 | 56 | 107 | 4.0 | 9.0 | 0.00 | 0.00 | 0.00 | 58 | 1010.5 |
| 20260507150037 | 57 | 97 | 4.0 | 10.0 | 0.00 | 0.00 | 0.00 | 57 | 1010.4 |
| 20260507145527 | 57 | 360 | 5.0 | 10.0 | 0.00 | 0.00 | 0.00 | 56 | 1010.2 |
| 20260507145027 | 57 | 134 | 4.0 | 8.0 | 0.00 | 0.00 | 0.00 | 53 | 1010.1 |
| 20260507144539 | 57 | 109 | 2.0 | 7.0 | 0.00 | 0.00 | 0.00 | 54 | 1009.8 |
| 20260507144028 | 57 | 85 | 2.0 | 5.0 | 0.00 | 0.00 | 0.00 | 54 | 1009.9 |
| 20260507143525 | 56 | 360 | 2.0 | 8.0 | 0.00 | 0.00 | 0.00 | 53 | 1009.9 |
| 20260507143040 | 56 | 44 | 1.0 | 8.0 | 0.00 | 0.00 | 0.00 | 53 | 1009.9 |
| 20260507142528 | 56 | 59 | 2.0 | 5.0 | 0.00 | 0.00 | 0.00 | 54 | 1009.8 |
| 20260507142025 | 55 | 360 | 0.0 | 4.0 | 0.00 | 0.00 | 0.00 | 52 | 1009.8 |
| 20260507141545 | 54 | 0 | 0.0 | 4.0 | 0.00 | 0.00 | 0.00 | 53 | 1010.0 |
| 20260507141028 | 54 | 360 | 0.0 | 3.0 | 0.00 | 0.00 | 0.00 | 54 | 1009.8 |
| 20260507140528 | 53 | 233 | 2.0 | 3.0 | 0.00 | 0.00 | 0.00 | 54 | 1010.0 |
| 20260507140039 | 52 | 0 | 1.0 | 3.0 | 0.00 | 0.00 | 0.00 | 60 | 1010.0 |
| 20260507135524 | 51 | 233 | 1.0 | 3.0 | 0.00 | 0.00 | 0.00 | 58 | 1010.0 |
| 20260507135027 | 51 | 233 | 1.0 | 3.0 | 0.00 | 0.00 | 0.00 | 58 | 1010.1 |
| 20260507134541 | 50 | 233 | 1.0 | 3.0 | 0.00 | 0.00 | 0.00 | 60 | 1010.0 |
| 20260507134024 | 48 | 0 | 0.0 | 0.0 | 0.00 | 0.00 | 0.00 | 62 | 1010.0 |
| 20260507133526 | 47 | 0 | 0.0 | 0.0 | 0.00 | 0.00 | 0.00 | 63 | 1010.2 |
| 20260507133039 | 47 | 0 | 0.0 | 3.0 | 0.00 | 0.00 | 0.00 | 65 | 1010.1 |
| 20260507132529 | 47 | 0 | 1.0 | 4.0 | 0.00 | 0.00 | 0.00 | 62 | 1010.1 |
| 20260507132027 | 46 | 0 | 0.0 | 4.0 | 0.00 | 0.00 | 0.00 | 62 | 1010.3 |
| 20260507131539 | 46 | 233 | 2.0 | 4.0 | 0.00 | 0.00 | 0.00 | 63 | 1010.1 |
| 20260507131030 | 45 | 360 | 1.0 | 3.0 | 0.00 | 0.00 | 0.00 | 63 | 1010.1 |
| 20260507130526 | 44 | 0 | 0.0 | 0.0 | 0.00 | 0.00 | 0.00 | 66 | 1010.1 |
| 20260507130039 | 43 | 0 | 0.0 | 2.0 | 0.00 | 0.00 | 0.00 | 67 | 1010.1 |
| 20260507125527 | 43 | 0 | 0.0 | 2.0 | 0.00 | 0.00 | 0.00 | 70 | 1010.0 |
| 20260507125027 | 42 | 242 | 0.0 | 2.0 | 0.00 | 0.00 | 0.00 | 67 | 1010.0 |
| 20260507124537 | 42 | 360 | 0.0 | 2.0 | 0.00 | 0.00 | 0.00 | 69 | 1009.8 |
| 20260507124024 | 41 | 0 | 0.0 | 4.0 | 0.00 | 0.00 | 0.00 | 68 | 1009.7 |
| 20260507123528 | 41 | 0 | 0.0 | 4.0 | 0.00 | 0.00 | 0.00 | 67 | 1009.7 |
| 20260507123045 | 40 | 242 | 2.0 | 4.0 | 0.00 | 0.00 | 0.00 | 70 | 1009.6 |
| 20260507122528 | 40 | 360 | 2.0 | 4.0 | 0.00 | 0.00 | 0.00 | 67 | 1009.5 |
| 20260507122027 | 39 | 360 | 0.0 | 4.0 | 0.00 | 0.00 | 0.00 | 68 | 1009.5 |
| 20260507121542 | 39 | 0 | 0.0 | 3.0 | 0.00 | 0.00 | 0.00 | 70 | 1009.5 |
| 20260507121028 | 38 | 0 | 0.0 | 4.0 | 0.00 | 0.00 | 0.00 | 71 | 1009.5 |
| 20260507120523 | 38 | 0 | 1.0 | 4.0 | 0.00 | 0.00 | 0.00 | 70 | 1009.5 |
| 20260507120044 | 38 | 0 | 0.0 | 3.0 | 0.00 | 0.00 | 0.00 | 71 | 1009.6 |
| 20260507115528 | 39 | 360 | 1.0 | 3.0 | 0.00 | 0.00 | 0.00 | 69 | 1009.5 |
| 20260507115027 | 39 | 242 | 1.0 | 3.0 | 0.00 | 0.00 | 0.00 | 70 | 1009.6 |
| 20260507114542 | 39 | 242 | 2.0 | 3.0 | 0.00 | 0.00 | 0.00 | 67 | 1009.7 |
| 20260507114027 | 39 | 360 | 1.0 | 3.0 | 0.00 | 0.00 | 0.00 | 69 | 1009.7 |
| 20260507113528 | 39 | 241 | 2.0 | 3.0 | 0.00 | 0.00 | 0.00 | 69 | 1009.6 |
| 20260507113043 | 38 | 241 | 2.0 | 3.0 | 0.00 | 0.00 | 0.00 | 70 | 1009.5 |
| 20260507112525 | 38 | 259 | 0.0 | 2.0 | 0.00 | 0.00 | 0.00 | 75 | 1009.6 |
| 20260507112025 | 37 | 0 | 0.0 | 2.0 | 0.00 | 0.00 | 0.00 | 70 | 1009.7 |
| 20260507111543 | 37 | 0 | 0.0 | 2.0 | 0.00 | 0.00 | 0.00 | 74 | 1009.6 |
| 20260507111024 | 37 | 259 | 0.0 | 3.0 | 0.00 | 0.00 | 0.00 | 74 | 1009.5 |
| 20260507110528 | 37 | 273 | 1.0 | 3.0 | 0.00 | 0.00 | 0.00 | 74 | 1009.4 |
| 20260507110042 | 38 | 273 | 1.0 | 3.0 | 0.00 | 0.00 | 0.00 | 71 | 1009.4 |
| 20260507105524 | 37 | 0 | 1.0 | 3.0 | 0.00 | 0.00 | 0.00 | 69 | 1009.5 |
| 20260507105024 | 37 | 23 | 0.0 | 2.0 | 0.00 | 0.00 | 0.00 | 70 | 1009.5 |
| 20260507104538 | 37 | 0 | 0.0 | 2.0 | 0.00 | 0.00 | 0.00 | 70 | 1009.5 |
| 20260507104028 | 37 | 0 | 0.0 | 2.0 | 0.00 | 0.00 | 0.00 | 70 | 1009.4 |
| 20260507103528 | 37 | 0 | 1.0 | 3.0 | 0.00 | 0.00 | 0.00 | 71 | 1009.2 |
| 20260507103038 | 37 | 0 | 0.0 | 3.0 | 0.00 | 0.00 | 0.00 | 70 | 1009.3 |
| 20260507102524 | 37 | 0 | 0.0 | 3.0 | 0.00 | 0.00 | 0.00 | 70 | 1009.3 |
| 20260507102025 | 37 | 0 | 0.0 | 0.0 | 0.00 | 0.00 | 0.00 | 71 | 1009.4 |
| 20260507101545 | 37 | 0 | 0.0 | 0.0 | 0.00 | 0.00 | 0.00 | 68 | 1009.3 |
| 20260507101026 | 37 | 0 | 0.0 | 0.0 | 0.00 | 0.00 | 0.00 | 71 | 1009.2 |
| 20260507100527 | 37 | 0 | 0.0 | 0.0 | 0.00 | 0.00 | 0.00 | 67 | 1009.2 |
| 20260507100043 | 37 | 0 | 0.0 | 5.0 | 0.00 | 0.00 | 0.00 | 68 | 1009.2 |
| 20260507095525 | 37 | 0 | 1.0 | 5.0 | 0.00 | 0.00 | 0.00 | 67 | 1009.1 |
| 20260507095024 | 36 | 266 | 1.0 | 5.0 | 0.00 | 0.00 | 0.00 | 66 | 1009.0 |
| 20260507094539 | 36 | 234 | 1.0 | 4.0 | 0.00 | 0.00 | 0.00 | 68 | 1009.0 |
| 20260507094024 | 35 | 234 | 1.0 | 3.0 | 0.00 | 0.00 | 0.00 | 68 | 1009.0 |
| 20260507093531 | 34 | 0 | 0.0 | 1.0 | 0.00 | 0.00 | 0.00 | 67 | 1009.0 |
| 20260507093038 | 35 | 0 | 0.0 | 2.0 | 0.00 | 0.00 | 0.00 | 69 | 1009.0 |
| 20260507092526 | 35 | 0 | 0.0 | 2.0 | 0.00 | 0.00 | 0.00 | 69 | 1008.7 |
| 20260507092030 | 35 | 234 | 0.0 | 2.0 | 0.00 | 0.00 | 0.00 | 69 | 1008.6 |
| 20260507091547 | 34 | 234 | 0.0 | 2.0 | 0.00 | 0.00 | 0.00 | 67 | 1008.5 |
| 20260507091025 | 33 | 234 | 0.0 | 2.0 | 0.00 | 0.00 | 0.00 | 69 | 1008.4 |
| 20260507090526 | 33 | 0 | 0.0 | 2.0 | 0.00 | 0.00 | 0.00 | 70 | 1008.3 |
| 20260507090047 | 33 | 0 | 0.0 | 2.0 | 0.00 | 0.00 | 0.00 | 70 | 1008.3 |
| 20260507085525 | 32 | 0 | 0.0 | 3.0 | 0.00 | 0.00 | 0.00 | 70 | 1008.3 |
| 20260507085028 | 33 | 0 | 1.0 | 3.0 | 0.00 | 0.00 | 0.00 | 69 | 1008.3 |
| 20260507084541 | 33 | 234 | 0.0 | 2.0 | 0.00 | 0.00 | 0.00 | 69 | 1008.4 |
| 20260507084025 | 33 | 0 | 0.0 | 2.0 | 0.00 | 0.00 | 0.00 | 69 | 1008.3 |
| 20260507083527 | 33 | 0 | 0.0 | 2.0 | 0.00 | 0.00 | 0.00 | 68 | 1008.3 |
| 20260507083041 | 33 | 0 | 0.0 | 2.0 | 0.00 | 0.00 | 0.00 | 67 | 1008.3 |
| 20260507082524 | 34 | 234 | 0.0 | 1.0 | 0.00 | 0.00 | 0.00 | 67 | 1008.3 |
| 20260507082024 | 34 | 0 | 0.0 | 2.0 | 0.00 | 0.00 | 0.00 | 67 | 1008.4 |
| 20260507081544 | 34 | 0 | 0.0 | 3.0 | 0.00 | 0.00 | 0.00 | 68 | 1008.4 |
| 20260507081026 | 34 | 0 | 1.0 | 3.0 | 0.00 | 0.00 | 0.00 | 67 | 1008.4 |
| 20260507080525 | 35 | 0 | 0.0 | 2.0 | 0.00 | 0.00 | 0.00 | 66 | 1008.5 |
| 20260507080039 | 35 | 0 | 0.0 | 4.0 | 0.00 | 0.00 | 0.00 | 66 | 1008.7 |
| 20260507075525 | 36 | 234 | 0.0 | 4.0 | 0.00 | 0.00 | 0.00 | 63 | 1008.7 |
| 20260507075027 | 35 | 252 | 2.0 | 4.0 | 0.00 | 0.00 | 0.00 | 64 | 1008.7 |
| 20260507074539 | 35 | 242 | 1.0 | 4.0 | 0.00 | 0.00 | 0.00 | 65 | 1008.7 |
| 20260507074028 | 35 | 242 | 2.0 | 5.0 | 0.00 | 0.00 | 0.00 | 65 | 1008.7 |
| 20260507073525 | 34 | 238 | 3.0 | 5.0 | 0.00 | 0.00 | 0.00 | 67 | 1008.6 |
| 20260507073052 | 33 | 254 | 2.0 | 4.0 | 0.00 | 0.00 | 0.00 | 67 | 1008.8 |
| 20260507072525 | 33 | 261 | 2.0 | 4.0 | 0.00 | 0.00 | 0.00 | 67 | 1008.9 |
| 20260507072027 | 33 | 0 | 0.0 | 1.0 | 0.00 | 0.00 | 0.00 | 68 | 1009.1 |
| 20260507071540 | 33 | 0 | 0.0 | 2.0 | 0.00 | 0.00 | 0.00 | 67 | 1009.2 |
| 20260507071026 | 34 | 0 | 0.0 | 2.0 | 0.00 | 0.00 | 0.00 | 66 | 1009.1 |
| 20260507070525 | 34 | 0 | 0.0 | 3.0 | 0.00 | 0.00 | 0.00 | 66 | 1008.9 |
| 20260507070042 | 34 | 0 | 0.0 | 4.0 | 0.00 | 0.00 | 0.00 | 66 | 1008.9 |
| 20260507065525 | 34 | 245 | 2.0 | 4.0 | 0.00 | 0.00 | 0.00 | 66 | 1008.8 |
| 20260507065024 | 34 | 240 | 2.0 | 4.0 | 0.00 | 0.00 | 0.00 | 66 | 1009.0 |
| 20260507064544 | 34 | 238 | 1.0 | 3.0 | 0.00 | 0.00 | 0.00 | 66 | 1009.1 |
| 20260507064027 | 34 | 0 | 0.0 | 2.0 | 0.00 | 0.00 | 0.00 | 66 | 1009.3 |
| 20260507063527 | 35 | 0 | 0.0 | 4.0 | 0.00 | 0.00 | 0.00 | 65 | 1009.4 |
| 20260507063046 | 36 | 234 | 1.0 | 4.0 | 0.00 | 0.00 | 0.00 | 62 | 1009.1 |
| 20260507062528 | 36 | 246 | 1.0 | 7.0 | 0.00 | 0.00 | 0.00 | 62 | 1009.0 |
| 20260507062025 | 36 | 251 | 3.0 | 7.0 | 0.00 | 0.00 | 0.00 | 62 | 1009.0 |
| 20260507061543 | 36 | 244 | 2.0 | 4.0 | 0.00 | 0.00 | 0.00 | 62 | 1008.9 |
| 20260507061024 | 36 | 243 | 2.0 | 4.0 | 0.00 | 0.00 | 0.00 | 62 | 1008.9 |
| 20260507060527 | 36 | 250 | 2.0 | 4.0 | 0.00 | 0.00 | 0.00 | 62 | 1008.9 |